Location: ????????
(48.4751°N, 37.6926°E)
Time: 21:12:14
(UTC+00:00)

Cosmos 1777 Rocket - Pass Details

Date: 20 January 2021
Orbit: 758 x 776 km, 74.0° (Epoch: 02 March)

Event Time Altitude Azimuth Distance (km) Brightness Sun altitude
Rises 15:32:31 0° 197° (SSW) 3,225 7.7 -13.6°
Reaches altitude 10° 15:34:52 10° 196° (SSW) 2,305 6.9 -13.9°
Maximum altitude 15:40:06 80° 111° (ESE) 791 3.9 -14.8°
Drops below altitude 10° 15:45:25 10° 25° (NNE) 2,332 6.1 -15.6°
Enters shadow 15:45:39 - 25° (NNE) 2,427 6.2 -15.7°
